Hlavní strana
METAR-TAF:

METAR-TAF

Letiště :

Blytheville Municipal Airport

Blytheville, Arkansas, Spojené státy americké

zeměpisná šířka: 35-56-20N, zeměpisná délka: 089-49-57W, výška: 78 m

Aktuální stav počasí

Zpráva byla vytvořena před 7 minutami, v 12:53 UTC
Severovýchodní vítr 7 kt
Teplota 1°C
Vlhkost vzduchu 93%
Tlak 1019 hPa
Viditelnost: 16.1 km
Zataženo ve výšce 200 ft

METAR: KHKA 281253Z AUTO 05007KT 10SM OVC002 01/00 A3010 RMK AO2 SNB33E42 SLP193 P0000 T00110000 $

Čas: 07:00 (13:00 UTC)


TAF: chybějící

Stav a předpovědi počasí z více než 4 000 letišť (zprávy METAR a TAF).

Červené a žluté tečky na mapě představují dostupné meteorologické stanice.

Když kurzor umístíte na tečku, zobrazí se název stanice.

Pak kliknutím zobrazíte stav a předpověď počasí.

Chcete-li změnit mapu, kliknutím na zelené tlačítko se znaménkem +mapu přiblížíte, kliknutím na zelené tlačítko se znaménkem – mapu oddálíte a kliknutím na zelené šipky přejdete na sousední mapy.


METAR-TAF: